E1057 Weather Reports


time (UTC)temp
F
wind
direction
speed
knots
gust
knots
rain 1hr
in
rain 24hr
in
rain mn
in
humidity
%
barometer
mb
20260504005048 54 290 0.0 0.0 0.00 0.00 0.00 65 1012.8
20260504004514 54 290 0.0 0.0 0.00 0.00 0.00 64 1012.8
20260504004046 55 290 0.0 1.7 0.00 0.00 0.00 63 1012.8
20260504003512 55 290 0.0 1.7 0.00 0.00 0.00 62 1012.8
20260504003041 56 291 0.0 0.0 0.00 0.00 0.00 61 1012.7
20260504002502 56 291 0.0 0.0 0.00 0.00 0.00 61 1012.7
20260504002034 56 291 0.0 0.0 0.00 0.00 0.00 59 1012.7
20260504001600 57 291 0.0 0.0 0.00 0.00 0.00 58 1012.7
20260504001032 57 291 0.0 0.0 0.00 0.00 0.00 56 1012.7
20260504000552 57 291 0.0 0.0 0.00 0.00 0.00 55 1012.7
20260504000020 58 291 0.0 0.9 0.00 0.00 0.00 55 1012.7
20260503235552 58 291 0.0 0.9 0.00 0.00 0.00 54 1012.7
20260503235014 58 290 0.0 0.0 0.00 0.00 0.00 52 1012.7
20260503234536 59 291 0.0 0.0 0.00 0.00 0.00 52 1012.6
20260503234058 59 292 0.0 0.0 0.00 0.00 0.00 50 1012.6
20260503233530 59 292 0.0 0.0 0.00 0.00 0.00 50 1012.6
20260503233050 59 291 0.0 0.0 0.00 0.00 0.00 51 1012.6
20260503232517 59 291 0.0 8.7 0.00 0.00 0.00 49 1012.3
20260503232046 60 290 0.9 8.7 0.00 0.00 0.00 49 1012.3
20260503231508 60 257 0.0 2.6 0.00 0.00 0.00 51 1012.4
20260503231038 60 285 0.0 2.6 0.00 0.00 0.00 49 1012.4
20260503230507 60 285 0.0 5.2 0.00 0.00 0.00 50 1012.4
20260503230040 60 283 0.0 5.2 0.00 0.00 0.00 48 1012.3
20260503225558 60 294 0.0 6.1 0.00 0.00 0.00 47 1012.3
20260503225033 61 321 0.0 6.1 0.00 0.00 0.00 47 1012.3
20260503224504 61 351 0.0 1.7 0.00 0.00 0.00 48 1012.4
20260503224035 61 5 0.0 0.9 0.00 0.00 0.00 48 1012.4
20260503223501 61 5 0.0 5.2 0.00 0.00 0.00 50 1012.4
20260503223035 61 5 0.0 5.2 0.00 0.00 0.00 48 1012.3
20260503222553 61 309 0.0 4.3 0.00 0.00 0.00 49 1012.3
20260503222026 61 69 0.9 4.3 0.00 0.00 0.00 46 1012.3
20260503221600 61 42 0.0 3.5 0.00 0.00 0.00 49 1012.3
20260503221026 61 27 0.0 1.7 0.00 0.00 0.00 48 1012.3
20260503220552 61 27 0.0 2.6 0.00 0.00 0.00 48 1012.3
20260503220022 62 28 0.0 2.6 0.00 0.00 0.00 47 1012.5
20260503215550 62 336 0.0 2.6 0.00 0.00 0.00 47 1012.5
20260503215025 62 323 0.0 2.6 0.00 0.00 0.00 46 1012.5
20260503214552 62 323 0.0 3.5 0.00 0.00 0.00 46 1012.5
20260503214014 62 84 0.0 3.5 0.00 0.00 0.00 44 1012.6
20260503213546 62 39 0.0 2.6 0.00 0.00 0.00 45 1012.6
20260503213019 63 290 0.0 7.0 0.00 0.00 0.00 42 1012.8
20260503212538 63 276 0.0 7.0 0.00 0.00 0.00 44 1012.8
20260503212003 63 91 0.0 4.3 0.00 0.00 0.00 41 1012.8
20260503211537 63 98 0.0 0.9 0.00 0.00 0.00 42 1012.8
20260503211013 62 98 0.0 4.3 0.00 0.00 0.00 43 1012.8
20260503210535 62 99 0.0 4.3 0.00 0.00 0.00 41 1012.8
20260503210002 62 105 0.0 2.6 0.00 0.00 0.00 43 1012.8
20260503205535 62 105 0.0 3.5 0.00 0.00 0.00 46 1012.8
20260503205058 62 105 0.0 5.2 0.00 0.00 0.00 45 1012.8
20260503204506 61 120 0.0 5.2 0.00 0.00 0.00 45 1013.2
20260503204038 61 304 0.0 5.2 0.00 0.00 0.00 44 1013.2
20260503203504 61 304 0.9 9.6 0.00 0.00 0.00 45 1013.2
20260503203036 62 64 0.9 9.6 0.00 0.00 0.00 44 1013.4
20260503202558 62 271 0.0 5.2 0.00 0.00 0.00 43 1013.4
20260503202022 62 44 0.0 8.7 0.00 0.00 0.00 43 1013.4
20260503201552 63 284 0.9 8.7 0.00 0.00 0.00 42 1013.4
20260503201015 63 109 1.7 7.8 0.00 0.00 0.00 42 1013.5
20260503200543 63 52 0.0 9.6 0.00 0.00 0.00 41 1013.5
20260503200017 63 14 1.7 9.6 0.00 0.00 0.00 41 1014.0
20260503195541 63 39 0.0 1.7 0.00 0.00 0.00 41 1014.0
20260503195008 63 286 0.0 5.2 0.00 0.00 0.00 40 1014.0
20260503194540 64 155 0.0 4.3 0.00 0.00 0.00 40 1014.1
20260503194009 64 95 0.0 5.2 0.00 0.00 0.00 40 1014.1
20260503193536 64 94 0.0 5.2 0.00 0.00 0.00 41 1014.1
20260503193117 64 107 0.0 10.4 0.00 0.00 0.00 42 1014.1
20260503192527 64 76 3.5 10.4 0.00 0.00 0.00 40 1014.4
20260503192049 64 12 0.0 2.6 0.00 0.00 0.00 42 1014.4
20260503191538 63 314 0.0 2.6 0.00 0.00 0.00 41 1014.5
20260503191047 63 316 0.9 2.6 0.00 0.00 0.00 42 1014.5
20260503190511 63 316 0.0 5.2 0.00 0.00 0.00 45 1014.5
20260503190036 63 331 0.0 5.2 0.00 0.00 0.00 41 1014.5
20260503185556 63 331 0.0 4.3 0.00 0.00 0.00 43 1014.5
20260503185021 64 335 0.0 2.6 0.00 0.00 0.00 45 1014.5
20260503184549 64 333 0.0 3.5 0.00 0.00 0.00 44 1014.5
20260503184025 63 331 0.9 3.5 0.00 0.00 0.00 42 1014.6
20260503183549 63 305 0.0 2.6 0.00 0.00 0.00 44 1014.6
20260503183021 62 121 0.0 3.5 0.00 0.00 0.00 46 1014.9
20260503182549 61 159 0.0 3.5 0.00 0.00 0.00 44 1014.9
20260503182024 61 323 0.0 0.9 0.00 0.00 0.00 45 1014.9
20260503181550 61 321 0.0 1.7 0.00 0.00 0.00 43 1015.1
20260503181006 61 322 0.0 1.7 0.00 0.00 0.00 45 1015.1
20260503180534 61 322 0.0 0.0 0.00 0.00 0.00 41 1015.1
20260503175529 60 322 0.0 0.0 0.00 0.00 0.00 40 1015.2
20260503175057 60 322 0.0 0.0 0.00 0.00 0.00 44 1015.2
20260503174532 61 322 0.0 0.0 0.00 0.00 0.00 39 1015.2
20260503174053 61 322 0.0 4.3 0.00 0.00 0.00 40 1015.2
20260503173525 62 322 0.0 4.3 0.00 0.00 0.00 36 1015.2
20260503173058 62 34 0.0 3.5 0.00 0.00 0.00 42 1015.2
20260503172525 62 34 0.0 1.7 0.00 0.00 0.00 39 1015.7
20260503172058 62 34 0.0 1.7 0.00 0.00 0.00 41 1015.7
20260503171528 61 34 0.0 1.7 0.00 0.00 0.00 44 1015.8
20260503171057 61 34 0.0 1.7 0.00 0.00 0.00 42 1015.8
20260503170530 61 34 0.0 1.7 0.00 0.00 0.00 41 1015.8
20260503170104 60 34 0.0 0.0 0.00 0.00 0.00 42 1015.8
20260503151012 55 45 0.0 0.0 0.00 0.00 0.00 54 1017.1
20260503150531 55 45 0.0 1.7 0.00 0.00 0.00 56 1017.1
20260503131053 47 74 0.0 0.0 0.00 0.00 0.00 72 1016.9
20260503130528 46 74 0.0 3.5 0.00 0.00 0.00 73 1016.9
20260503110512 35 75 0.0 0.0 0.00 0.00 0.00 73 1016.0
20260503081552 37 75 0.0 0.0 0.00 0.00 0.00 84 1013.9
20260503081026 38 75 0.0 0.0 0.00 0.00 0.00 83 1013.8
20260503080558 38 75 0.0 0.0 0.00 0.00 0.00 83 1013.8
20260503072542 37 75 0.0 0.0 0.00 0.00 0.00 84 1013.3
20260503072014 37 75 0.0 0.0 0.00 0.00 0.00 84 1013.3
20260503071539 38 75 0.0 0.0 0.00 0.00 0.00 84 1013.1
20260503071006 38 75 0.0 0.0 0.00 0.00 0.00 84 1013.1
20260503070535 38 75 0.0 0.0 0.00 0.00 0.00 84 1013.1
20260503055030 38 75 0.0 0.0 0.00 0.00 0.00 84 1013.1
20260503054611 38 75 0.0 0.0 0.00 0.00 0.00 84 1013.1
20260503054027 38 75 0.0 0.0 0.00 0.00 0.00 84 1013.1
20260503053556 38 75 0.0 0.0 0.00 0.00 0.00 84 1013.1
20260503053030 38 75 0.0 0.0 0.00 0.00 0.00 84 1013.0
20260503052555 39 75 0.0 0.0 0.00 0.00 0.00 83 1013.0
20260503052019 39 75 0.0 0.0 0.00 0.00 0.00 84 1013.0
20260503051550 39 75 0.0 0.0 0.00 0.00 0.00 83 1013.0
20260503051011 39 75 0.0 0.0 0.00 0.00 0.00 83 1012.9
20260503050541 39 75 0.0 0.0 0.00 0.00 0.00 82 1012.9
20260503050010 39 75 0.0 0.0 0.00 0.00 0.00 82 1012.9
20260503045545 39 75 0.0 0.0 0.00 0.00 0.00 82 1012.9
20260503045003 39 75 0.0 0.0 0.00 0.00 0.00 82 1012.9
20260503044541 40 75 0.0 0.0 0.00 0.00 0.00 82 1012.6
20260503044059 40 75 0.0 0.0 0.00 0.00 0.00 82 1012.6
20260503043523 40 75 0.0 0.0 0.00 0.00 0.00 81 1012.6
20260503043052 40 75 0.0 0.0 0.00 0.00 0.00 80 1012.5
20260503042507 40 75 0.0 0.0 0.00 0.00 0.00 80 1012.5
20260503042042 40 75 0.0 0.0 0.00 0.00 0.00 80 1012.5
20260503041511 40 75 0.0 0.0 0.00 0.00 0.00 80 1012.4
20260503041045 40 75 0.0 0.0 0.00 0.00 0.00 80 1012.4
20260503040514 40 75 0.0 0.0 0.00 0.00 0.00 80 1012.4
20260503040040 41 75 0.0 0.0 0.00 0.00 0.00 79 1012.3
20260503035504 41 75 0.0 0.0 0.00 0.00 0.00 78 1012.3
20260503035038 41 75 0.0 0.0 0.00 0.00 0.00 78 1012.3
20260503034556 41 75 0.0 0.0 0.00 0.00 0.00 78 1012.3
20260503034023 42 75 0.0 0.0 0.00 0.00 0.00 77 1012.1
20260503033551 42 75 0.0 0.0 0.00 0.00 0.00 76 1012.1
20260503033022 42 75 0.0 0.0 0.00 0.00 0.00 76 1012.1
20260503032546 42 75 0.0 0.0 0.00 0.00 0.00 74 1012.1
20260503032012 42 75 0.0 0.0 0.00 0.00 0.00 74 1012.1
20260503031538 42 75 0.0 0.0 0.00 0.00 0.00 74 1012.0
20260503031008 42 75 0.0 0.0 0.00 0.00 0.00 75 1012.0
20260503030536 42 75 0.0 0.0 0.00 0.00 0.00 74 1012.0
20260503030104 43 75 0.0 0.0 0.00 0.00 0.00 73 1012.0
20260503025527 43 75 0.0 0.0 0.00 0.00 0.00 72 1011.8
20260503025056 44 75 0.0 0.0 0.00 0.00 0.00 72 1011.8
20260503024526 44 75 0.0 0.0 0.00 0.00 0.00 71 1011.6
20260503024056 44 75 0.0 0.0 0.00 0.00 0.00 69 1011.6
20260503023519 44 75 0.0 0.0 0.00 0.00 0.00 68 1011.6
20260503023053 44 75 0.0 0.0 0.00 0.00 0.00 68 1011.6
20260503022517 44 75 0.0 0.0 0.00 0.00 0.00 68 1011.6
20260503022041 44 75 0.0 0.0 0.00 0.00 0.00 68 1011.6
20260503021508 45 75 0.0 0.0 0.00 0.00 0.00 68 1011.4
20260503021030 45 75 0.0 0.0 0.00 0.00 0.00 68 1011.4
20260503020600 45 75 0.0 0.0 0.00 0.00 0.00 68 1011.4
20260503020033 45 75 0.0 0.0 0.00 0.00 0.00 67 1011.1
20260503015558 45 75 0.0 0.0 0.00 0.00 0.00 67 1011.1
20260503015027 46 75 0.0 0.0 0.00 0.00 0.00 64 1011.1
20260503014602 46 75 0.0 0.0 0.00 0.00 0.00 64 1011.1
20260503014031 46 75 0.0 0.0 0.00 0.00 0.00 64 1011.0
20260503013600 46 75 0.0 0.0 0.00 0.00 0.00 64 1011.0
20260503013502 46 75 0.0 0.0 0.00 0.00 0.00 64 1011.0
20260503013036 47 75 0.0 0.0 0.00 0.00 0.00 62 1010.6
20260503012559 47 75 0.0 0.0 0.00 0.00 0.00 61 1010.6
20260503012017 48 75 0.0 0.0 0.00 0.00 0.00 60 1010.6
20260503011545 48 75 0.0 0.0 0.00 0.00 0.00 60 1010.5
20260503011017 48 75 0.0 0.0 0.00 0.00 0.00 58 1010.5
20260503010540 49 75 0.0 0.0 0.00 0.00 0.00 59 1010.5
20260503010008 49 75 0.0 0.0 0.00 0.00 0.00 56 1010.3
20260503005538 49 75 0.0 0.0 0.00 0.00 0.00 54 1010.3